GFSWCAN_850_rhum_024.txt.gz
RH
88 98 100 99 97 100 92 84 81 72 64 65 66 65 64 54 60 60 49 43 39 56 69 55 48 58 59 52 60 60 56 61 63 86 86 64 83 49 43 36 54 58 75 90 73 93 78 31 40 44 34 37 40 38
100 100 100 100 98 85 81 74 65 59 65 66 65 66 62 48 62 56 55 52 47 53 82 60 50 45 45 52 57 60 51 52 48 64 80 82 95 93 61 52 48 52 45 46 44 39 33 36 33 39 46 43 42 47
100 96 86 87 84 72 65 62 61 61 60 64 67 65 54 45 62 56 50 47 52 80 84 78 81 57 48 43 41 54 61 58 52 56 63 77 100 63 95 59 53 46 47 51 48 28 32 35 38 38 39 41 42 42
93 84 77 71 68 69 66 66 74 75 71 68 67 60 48 45 58 55 53 50 51 68 89 84 77 69 57 49 45 40 41 42 43 51 82 96 97 60 68 51 50 45 49 47 50 39 35 35 38 42 45 50 53 53
75 71 70 70 75 78 79 77 80 80 73 62 61 54 46 46 57 58 50 47 55 54 91 87 81 77 66 54 48 42 43 42 50 65 93 87 67 72 81 69 63 48 42 56 49 44 43 39 46 54 59 60 67 72
72 70 70 75 77 68 66 82 74 70 69 56 56 56 50 49 53 57 47 44 55 51 67 97 85 88 72 61 50 50 48 43 60 62 87 68 76 67 95 64 66 73 74 74 62 69 68 66 68 82 81 75 75 75
68 68 69 68 57 65 62 79 82 85 73 63 59 58 57 49 57 43 47 44 46 47 48 99 88 87 79 70 67 69 63 64 76 88 98 93 82 66 94 73 78 78 76 76 84 82 67 82 80 78 80 87 92 98
74 74 74 72 69 69 53 65 71 88 92 82 73 73 73 66 50 51 52 46 40 31 31 95 92 93 86 95 97 91 94 94 97 99 99 97 97 92 90 83 85 86 84 84 81 82 86 76 78 87 94 100 99 100
79 77 76 73 66 59 68 62 50 62 62 59 59 56 54 52 55 64 49 41 35 30 66 81 99 94 98 99 99 99 99 100 98 99 97 90 99 95 94 95 99 100 99 96 92 87 89 95 99 99 98 100 95 98
79 77 67 69 74 68 58 54 56 55 51 41 37 30 45 65 62 51 42 39 36 49 61 99 99 98 95 100 99 99 99 99 98 97 99 100 99 100 99 99 99 91 94 95 92 99 99 99 100 97 95 92 82 64
82 79 76 75 81 82 73 62 49 44 45 38 47 74 72 57 48 51 73 86 83 98 99 99 96 92 99 93 99 99 100 99 98 85 97 100 96 95 99 99 100 95 92 92 96 98 95 89 89 84 76 77 94 84
95 93 89 88 81 75 76 77 64 53 47 58 63 60 58 61 63 94 100 100 94 96 99 99 100 99 99 98 95 97 100 99 94 89 99 98 96 99 99 100 100 99 100 99 95 91 92 92 94 89 77 58 48 42
96 95 98 98 97 86 77 80 76 60 57 56 55 58 65 79 100 100 100 100 100 100 100 100 100 100 99 99 99 100 99 100 89 98 97 94 98 99 99 100 94 89 87 84 76 57 45 41 41 42 50 52 52 53
98 100 100 100 100 96 88 84 79 74 71 72 82 100 100 99 96 100 100 100 100 100 100 98 99 98 99 99 100 100 100 99 100 99 96 100 98 99 100 100 91 75 61 66 67 65 60 54 54 56 57 58 59 60
90 83 92 96 100 100 95 91 84 71 86 92 82 100 100 99 100 100 100 99 100 100 100 99 99 97 100 100 100 99 100 96 87 84 89 100 99 99 98 95 81 66 81 85 76 59 54 59 63 65 67 68 69 70
76 80 80 86 91 88 88 96 84 86 96 97 97 99 99 98 100 99 100 100 100 100 100 98 100 100 100 100 100 99 95 87 91 96 99 99 99 98 98 81 91 94 81 71 65 70 73 75 75 79 82 64 47 38
48 60 66 70 76 70 71 58 57 78 89 98 98 99 99 99 99 99 100 100 100 100 100 98 100 99 93 92 94 85 93 89 97 100 97 96 96 98 99 98 95 75 70 74 75 80 80 76 69 52 41 39 38 37
36 41 51 52 48 44 39 55 75 80 98 99 96 99 99 100 100 99 95 87 90 100 99 96 88 96 96 93 89 89 100 100 100 99 99 98 99 99 99 89 74 78 77 80 84 78 63 49 46 48 44 42 42 43
13 21 31 35 32 30 60 74 79 93 100 99 99 99 98 99 100 97 87 84 83 86 94 87 93 80 88 84 92 98 99 98 99 99 99 99 99 96 86 79 80 83 87 83 65 54 54 51 49 46 44 38 29 26
6 10 14 24 23 45 77 80 76 84 92 99 98 97 97 96 93 90 86 81 78 93 89 86 87 94 92 97 100 100 100 100 95 100 99 96 90 90 92 94 91 84 68 59 58 57 53 53 47 38 27 21 21 23
5 5 6 9 33 59 92 94 81 83 83 96 88 92 88 76 81 86 90 83 84 99 93 99 99 100 98 89 90 99 90 82 78 78 80 94 96 95 91 92 78 64 63 62 59 54 48 39 28 22 22 25 27 30
8 6 9 20 52 68 90 97 90 76 82 91 95 89 93 82 96 100 94 98 99 100 99 99 99 99 97 90 84 80 84 87 92 90 89 92 97 97 95 80 69 69 66 58 52 40 29 25 25 28 30 31 33 40
10 10 18 35 53 74 95 97 97 97 80 97 99 91 89 91 99 80 91 97 100 98 99 100 98 97 97 97 97 96 98 96 93 97 99 98 96 88 78 80 85 71 57 42 30 27 28 30 33 35 36 40 45 52
20 34 50 71 78 99 94 98 95 89 98 97 92 92 92 96 100 84 82 92 100 100 99 98 96 96 96 96 96 96 96 96 97 96 96 96 95 96 95 81 63 47 32 29 29 32 35 38 39 42 46 49 53 61
46 87 75 93 96 91 93 94 80 72 80 93 93 92 92 100 85 84 84 88 100 100 100 97 96 96 95 95 95 95 95 96 96 96 96 96 95 89 78 55 34 30 30 32 35 38 41 44 47 50 56 62 66 69
95 100 93 95 94 88 95 96 94 88 90 90 91 96 100 87 84 87 80 99 100 100 98 97 98 96 95 95 95 96 96 95 96 95 95 95 91 62 38 35 36 38 34 37 40 44 48 51 54 58 63 69 74 74
96 96 100 100 100 100 95 99 98 90 88 88 87 88 86 87 88 85 100 100 100 96 96 96 96 95 95 95 95 95 95 95 95 94 80 51 38 36 35 37 37 40 43 48 53 57 57 56 60 65 69 75 82 80
99 100 97 100 100 100 94 92 89 88 87 96 94 90 90 89 86 100 100 98 97 97 97 96 95 95 95 96 96 96 95 81 55 42 39 38 37 37 39 39 42 50 56 57 54 55 59 63 68 72 76 79 81 83
98 90 98 94 98 96 96 91 89 99 98 100 90 88 92 100 98 100 97 97 97 97 97 97 96 95 95 92 71 53 48 47 44 39 36 39 41 50 37 44 49 50 49 49 56 62 66 71 74 78 82 84 86 88
100 87 95 96 98 90 100 96 100 98 96 96 95 98 98 99 97 97 97 97 97 96 96 96 96 86 61 54 50 44 41 39 34 31 32 34 35 37 42 45 48 53 63 68 69 71 75 78 82 84 88 89 90 93
93 95 99 100 98 100 99 98 98 99 98 96 97 98 100 100 100 99 98 97 96 96 94 79 57 51 48 43 40 40 42 40 30 27 25 28 35 40 47 56 72 77 78 77 78 79 80 82 84 86 89 92 93 95
87 94 100 92 94 95 93 99 96 100 100 100 100 96 98 100 100 99 99 98 97 83 68 59 54 48 51 52 48 44 39 37 33 28 24 28 45 60 70 80 81 80 82 83 84 86 86 88 90 91 94 95 92 84
97 95 93 100 99 99 94 87 91 99 100 100 100 99 98 100 100 100 100 99 91 74 63 62 71 75 64 52 47 44 43 41 38 38 46 60 69 78 81 82 78 80 85 89 90 90 91 92 93 95 91 81 72 67

GFSWCAN_850_rhum_027.txt.gz
RH
57 64 66 67 72 87 87 94 100 99 89 94 99 93 78 76 73 92 92 40 35 43 46 46 30 29 27 33 56 50 52 55 51 73 79 58 74 45 40 29 50 55 69 87 66 92 77 22 28 36 35 26 26 31
73 66 80 88 97 99 100 96 98 99 100 99 90 80 79 68 71 99 90 41 50 48 71 77 58 44 42 34 34 52 33 46 45 46 72 71 92 87 53 47 32 45 39 43 40 39 28 25 24 26 31 35 34 34
78 92 99 100 100 100 100 100 99 91 85 78 74 73 72 62 74 93 84 48 42 74 74 64 67 55 47 49 52 46 54 42 44 49 56 69 96 59 92 53 42 34 35 41 40 22 22 24 27 31 33 35 37 39
100 100 100 100 99 93 91 91 84 76 72 74 74 70 62 59 81 88 89 56 55 62 93 77 78 85 51 46 47 56 50 51 54 56 80 92 95 46 62 44 41 37 36 34 38 29 26 28 32 40 46 50 50 51
97 94 95 97 99 96 76 67 67 68 68 66 62 58 52 54 79 91 64 54 51 51 87 82 86 81 75 66 56 44 54 52 57 71 89 81 54 62 66 56 52 37 34 52 50 42 51 44 51 64 61 65 67 66
100 100 100 100 96 90 86 83 74 65 60 60 62 62 53 55 79 66 58 52 46 57 80 88 92 89 83 73 67 65 62 55 49 61 83 52 64 55 97 57 52 57 60 61 52 65 65 65 68 68 71 74 73 75
85 78 75 80 93 95 80 75 71 66 64 65 64 60 49 61 74 81 47 48 48 50 76 91 84 91 92 79 86 75 73 70 58 67 90 68 61 56 94 65 63 65 66 66 72 70 63 68 66 76 84 94 98 98
66 76 76 82 99 100 91 78 69 68 67 65 64 57 52 55 76 59 54 54 51 49 69 93 94 92 91 93 96 94 96 78 90 92 92 86 78 79 77 69 70 73 71 77 70 68 66 72 82 95 99 100 100 96
76 78 76 92 91 91 93 88 74 73 73 70 66 65 68 75 70 59 54 47 50 54 66 99 99 98 93 96 97 99 91 99 92 99 84 78 92 89 83 79 78 85 80 78 78 81 94 98 100 100 99 93 92 96
76 82 75 76 90 91 88 92 97 95 92 82 74 68 69 70 62 56 52 57 63 86 82 99 86 90 83 96 97 95 97 96 94 93 88 96 95 100 100 99 95 94 87 89 95 99 99 100 100 94 89 81 73 78
72 70 72 72 74 74 72 69 57 51 53 42 52 80 74 62 54 52 79 81 71 91 93 94 80 86 99 91 98 99 99 94 95 85 90 100 94 93 99 100 100 99 98 97 93 96 94 92 89 83 83 90 93 77
85 84 76 78 77 70 62 55 48 39 40 47 59 70 65 66 68 93 100 99 89 91 98 98 99 93 99 95 86 92 97 88 96 74 97 94 95 100 99 100 99 94 91 92 92 87 83 83 82 78 74 76 46 53
90 89 86 77 72 69 72 63 56 54 50 48 47 52 73 88 100 97 100 98 98 99 100 99 100 99 99 96 98 90 99 97 73 98 84 95 100 100 100 96 85 79 79 78 73 71 71 63 42 48 53 50 58 61
96 97 90 86 84 76 67 63 68 61 57 68 85 100 100 98 100 100 100 100 100 100 100 99 98 97 99 98 100 98 100 97 99 99 96 100 100 99 99 85 81 73 71 70 73 78 55 54 51 56 57 60 63 63
97 98 99 88 87 89 86 82 75 73 75 92 90 100 100 99 100 100 100 99 100 100 99 97 99 91 100 100 99 100 100 98 90 94 100 100 99 99 99 86 75 77 76 89 84 53 55 61 78 86 71 70 63 48
88 86 90 94 95 95 93 84 76 74 83 94 97 99 99 99 99 99 100 100 100 100 99 99 100 100 100 100 98 100 98 91 97 94 99 100 99 98 97 82 82 91 94 88 94 72 70 77 80 80 67 49 40 41
71 78 78 78 82 85 72 75 74 89 98 95 98 100 100 99 99 100 100 100 100 98 100 99 100 100 93 97 98 95 100 93 98 99 100 99 99 98 91 94 98 88 92 97 99 95 82 75 66 51 56 54 45 55
57 58 61 55 55 46 37 60 74 92 99 99 97 98 99 99 99 99 98 97 99 100 100 100 94 100 100 97 94 90 100 100 98 99 99 99 100 99 97 98 94 94 100 97 88 80 68 57 78 77 71 50 50 67
32 38 40 37 30 29 62 71 91 91 99 98 99 99 99 99 99 91 82 88 94 98 92 81 96 96 99 99 98 100 100 98 99 100 100 100 99 99 99 97 99 99 99 95 90 86 82 61 63 63 54 32 51 82
14 19 24 26 19 43 88 87 82 84 90 99 98 100 100 100 91 87 79 79 90 82 90 88 95 100 100 100 100 99 100 99 98 100 99 99 99 98 96 97 100 100 94 76 64 68 85 86 77 46 32 25 66 82
6 8 12 11 31 64 100 88 82 86 82 85 94 84 84 95 94 96 98 90 88 92 92 99 99 98 100 100 99 100 100 100 98 90 95 100 99 99 100 99 99 98 98 100 99 88 62 63 44 25 27 62 48 86
8 8 12 23 43 70 97 97 81 79 72 77 78 72 82 84 89 93 98 86 92 97 100 100 100 98 98 98 100 99 99 98 99 99 98 99 100 100 100 99 96 98 90 78 67 48 42 29 25 28 36 47 66 100
8 10 20 32 47 78 97 96 93 85 78 88 85 75 78 84 88 87 87 90 95 100 100 100 100 100 98 96 96 96 97 99 99 98 97 96 96 96 95 95 95 97 98 64 33 29 30 29 38 36 60 62 100 100
24 33 43 76 89 97 99 91 78 76 86 85 78 81 82 86 91 77 82 86 94 100 100 100 100 100 100 99 98 96 95 95 95 95 96 96 95 96 96 95 94 79 52 33 30 32 38 43 43 67 85 90 100 100
55 89 89 86 93 82 84 83 76 70 77 81 79 79 82 91 81 79 81 87 98 100 100 99 100 100 100 100 98 96 96 96 96 95 96 96 95 95 94 90 57 32 30 32 40 38 50 47 59 80 72 100 100 100
88 99 87 88 86 81 83 79 81 81 79 80 84 88 92 81 76 79 78 96 100 100 100 100 100 100 100 100 100 99 96 95 95 95 95 95 94 88 70 79 94 99 38 37 38 41 54 71 63 54 74 100 100 100
87 92 97 100 97 91 86 88 86 73 77 80 80 77 79 80 80 87 98 100 98 100 100 100 100 100 100 100 99 97 96 95 95 92 75 47 38 35 35 41 42 42 37 38 41 43 43 44 55 88 100 100 100 100
93 96 88 99 93 93 83 79 77 78 77 83 79 80 80 85 85 98 100 100 100 100 98 94 94 95 97 97 100 100 96 64 43 39 38 44 41 40 37 33 29 28 31 32 34 37 44 54 84 100 100 100 100 100
91 100 96 92 90 85 84 80 79 87 95 90 85 83 88 100 100 100 100 100 98 100 100 100 100 97 96 81 58 50 45 43 66 50 75 93 100 100 52 32 35 37 36 45 60 67 73 72 82 92 88 93 100 100
94 100 84 92 86 76 95 100 100 100 100 100 100 100 100 100 100 98 100 100 100 99 96 97 98 94 90 100 96 43 39 41 40 35 34 53 60 40 34 64 80 84 77 89 82 88 96 97 95 100 100 100 100 100
100 94 86 86 83 98 100 96 99 100 100 100 100 99 99 100 100 97 95 96 97 100 100 100 75 71 56 45 57 62 90 52 36 34 32 30 29 38 92 91 89 96 83 94 94 100 100 94 100 100 100 100 100 100
98 100 87 77 84 100 100 100 100 99 99 96 99 100 100 98 95 100 97 100 100 100 80 96 100 64 63 65 55 46 41 43 43 44 46 51 58 68 77 88 97 100 96 91 92 100 100 100 100 100 100 100 100 83
96 95 88 84 82 83 99 98 90 88 90 89 95 99 100 98 94 100 98 97 90 86 71 73 86 91 76 54 46 46 49 54 57 63 67 72 73 76 80 85 93 94 87 89 98 100 100 100 100 99 94 85 75 71

GFSWCAN_850_rhum_030.txt.gz
RH
72 74 83 78 87 81 69 47 51 65 69 82 92 86 85 83 89 100 84 97 99 70 38 34 25 25 28 40 67 51 53 51 63 81 85 70 87 56 42 32 62 72 84 94 79 96 89 21 25 36 40 30 30 30
78 66 57 70 77 67 50 52 64 76 86 91 98 98 82 64 89 100 99 76 83 100 68 53 42 34 31 34 47 52 41 46 49 55 76 84 92 93 68 59 25 50 45 62 58 62 32 21 24 24 28 31 33 34
64 64 72 70 72 73 74 83 88 87 87 97 100 99 75 86 95 91 80 88 100 74 69 52 65 42 33 42 46 52 48 39 40 39 65 78 93 73 94 70 48 31 32 48 44 23 23 23 25 27 36 42 45 46
77 79 84 87 84 85 85 92 86 99 100 96 92 98 99 90 81 80 94 98 89 51 98 83 70 54 43 47 47 50 47 45 47 56 85 98 97 46 80 51 53 39 35 35 36 30 31 32 48 54 57 58 61 62
72 91 90 90 93 99 99 100 98 99 100 100 100 99 88 79 75 92 95 100 74 49 86 81 81 70 49 47 51 54 55 50 60 78 94 90 55 77 73 64 68 35 36 64 64 50 52 54 62 61 64 64 67 65
100 100 100 100 100 100 100 100 100 100 99 88 86 80 78 74 81 100 99 69 56 63 72 95 85 78 70 65 62 62 61 53 52 70 83 56 58 64 98 80 45 52 53 56 52 62 62 64 66 76 86 88 87 85
100 100 98 92 90 92 91 88 84 84 85 80 79 79 75 77 94 100 70 59 55 59 74 97 92 86 74 74 73 68 63 59 57 65 80 68 57 65 99 82 55 58 59 61 64 66 66 63 73 84 91 96 85 86
100 100 100 100 99 94 81 74 76 72 72 72 71 72 72 76 99 89 65 60 51 55 73 97 100 88 88 82 91 88 81 72 80 86 83 81 80 78 87 61 62 64 67 66 63 64 73 86 89 91 92 93 94 98
100 100 100 100 100 96 90 82 72 69 69 68 78 82 82 91 91 69 60 58 52 51 80 99 97 100 86 96 96 96 86 97 87 93 80 79 90 89 70 67 69 73 70 74 83 84 89 90 90 90 87 89 94 90
92 99 100 100 96 98 92 84 90 86 86 87 86 74 89 85 70 63 58 62 59 73 85 98 90 99 88 92 98 94 93 96 93 95 82 100 97 88 86 83 82 83 78 84 91 97 93 88 86 81 74 83 90 93
82 83 91 89 87 93 93 90 85 84 79 76 70 92 86 70 70 66 82 83 71 93 87 88 79 91 95 96 99 99 96 97 94 88 91 98 88 91 96 94 98 96 90 93 86 92 90 84 80 82 83 86 66 56
82 77 81 80 73 65 77 85 84 80 73 66 65 68 62 68 79 94 100 99 98 97 96 97 92 92 98 84 84 92 92 85 96 78 99 93 93 99 99 98 94 89 89 88 87 86 82 83 80 75 81 60 63 65
92 84 78 75 70 66 62 64 59 61 64 61 61 72 78 91 100 100 100 100 99 98 99 96 100 97 97 89 87 86 89 98 70 99 82 93 98 100 98 90 85 81 79 78 78 79 80 71 70 58 49 74 94 65
97 89 81 77 70 68 69 66 58 57 49 65 89 100 100 100 100 100 100 100 100 100 100 97 99 98 97 99 100 98 100 89 100 98 90 99 100 99 94 82 78 76 64 63 74 80 53 48 54 59 58 64 65 54
98 92 87 82 76 70 70 67 66 55 75 92 90 100 100 99 100 99 100 100 100 100 99 99 98 94 100 100 100 97 100 97 93 95 99 100 99 100 88 84 74 69 78 84 81 55 59 71 77 71 72 62 45 41
92 91 95 97 88 82 81 76 74 82 95 97 98 99 99 99 99 99 99 100 100 99 99 92 100 100 100 100 94 100 94 94 99 97 100 100 100 100 99 84 72 82 88 86 68 66 73 94 100 76 60 51 47 47
65 78 84 83 80 80 80 71 79 94 99 98 99 99 99 99 99 99 100 100 100 95 100 99 100 100 89 97 96 100 100 100 99 100 100 99 99 99 100 93 95 94 93 94 96 100 89 81 68 58 70 60 59 69
65 53 51 42 33 33 56 81 88 92 98 99 98 99 99 99 99 99 100 99 98 99 99 99 99 100 100 99 100 100 99 100 100 100 100 99 99 100 94 97 99 98 92 99 93 85 76 73 79 79 75 59 59 63
40 39 36 28 20 29 67 78 86 97 99 99 99 99 99 99 96 90 94 97 94 97 98 99 96 95 98 98 98 100 99 99 100 100 100 100 99 98 100 100 99 98 99 97 90 88 76 67 68 68 57 36 31 50
18 22 24 22 14 45 84 81 82 89 95 98 98 98 96 98 88 87 87 86 80 82 84 92 95 98 98 98 99 100 100 98 98 99 100 99 99 97 98 98 97 97 93 88 81 86 88 91 83 61 36 28 42 34
6 8 10 8 31 76 97 85 83 87 85 89 91 77 84 88 93 94 93 80 77 97 93 98 98 99 97 99 98 99 100 100 100 99 99 99 100 100 100 99 98 97 98 98 97 91 82 74 52 28 26 40 35 51
8 6 9 18 42 75 94 89 84 73 82 83 81 74 83 88 84 90 84 82 88 98 99 99 99 100 100 98 96 97 98 98 98 98 99 99 97 97 96 97 96 96 95 95 95 85 66 40 28 26 29 41 68 99
13 16 24 36 48 82 95 86 85 77 72 76 74 68 72 80 84 80 86 89 97 98 97 97 97 100 100 100 98 97 96 96 95 96 96 96 96 96 96 95 95 95 95 94 74 47 38 34 43 38 78 86 97 100
26 41 52 84 87 94 87 80 67 69 75 74 75 76 82 83 84 70 83 91 98 99 99 95 98 98 100 100 100 100 99 96 95 96 96 96 95 95 95 95 95 95 90 64 42 40 55 61 60 90 96 82 100 100
56 86 84 84 85 76 76 72 70 65 76 76 82 83 82 83 75 76 83 94 98 99 100 100 100 97 100 100 100 98 96 95 95 95 95 98 95 95 94 94 71 45 38 39 44 43 54 65 85 85 70 99 100 100
88 97 82 79 79 76 71 73 73 78 70 78 78 82 89 78 77 88 85 98 100 98 100 100 100 100 100 100 100 100 96 98 98 95 96 95 93 93 98 97 100 93 50 37 33 35 54 70 73 87 100 100 100 100
83 84 89 94 89 83 79 78 77 74 78 83 85 83 77 84 87 89 98 98 100 100 100 100 100 100 100 100 100 98 96 92 86 74 51 38 35 34 37 46 49 44 33 31 32 32 37 57 79 93 100 100 100 100
90 92 83 88 85 78 73 73 79 88 86 81 79 85 88 90 89 100 100 95 96 98 97 98 96 97 99 100 100 100 100 91 72 67 79 90 88 75 70 55 40 36 55 68 52 59 71 84 85 96 100 100 100 100
92 97 84 90 74 76 84 86 89 97 94 88 87 89 91 100 100 98 96 97 96 98 99 97 99 100 100 98 68 54 39 44 52 53 86 99 100 100 68 43 66 82 99 91 100 100 100 100 100 100 100 100 100 100
89 94 76 79 78 79 100 97 100 94 100 100 100 98 100 100 100 98 98 97 100 100 100 100 100 100 100 100 100 94 67 59 43 38 38 42 43 43 47 94 100 98 100 100 100 100 100 100 100 100 100 100 100 100
95 85 77 74 80 98 98 100 97 98 100 99 100 99 99 100 100 100 100 100 100 100 99 100 100 96 85 60 70 73 98 69 42 41 44 48 54 64 99 97 100 100 100 100 100 100 100 100 100 100 100 100 100 100
88 90 80 72 91 96 100 96 96 98 99 99 97 100 100 100 97 100 96 100 100 100 100 100 100 100 80 75 58 49 44 48 63 58 62 64 67 71 75 79 85 100 100 100 100 100 100 100 100 100 100 100 100 100
81 80 80 74 73 85 98 91 80 90 89 91 93 97 100 99 96 100 100 97 96 96 96 93 94 94 83 52 49 55 75 95 77 73 76 71 74 75 80 84 89 92 92 94 98 99 100 100 100 100 100 100 100 98

GFSWCAN_850_rhum_036.txt.gz
RH
96 79 65 82 83 81 85 85 82 84 84 82 81 82 83 94 97 100 98 98 99 99 83 86 55 45 43 48 82 74 75 76 91 87 87 88 79 68 75 64 68 65 86 90 95 90 63 41 30 38 44 42 40 41
67 60 77 82 86 89 95 91 96 97 88 92 92 87 84 93 98 99 100 100 100 99 96 91 77 73 53 41 52 67 52 65 69 84 95 95 89 90 74 86 61 62 64 75 73 73 49 34 36 35 35 44 53 48
72 77 78 78 77 80 98 98 99 100 100 99 92 85 95 98 99 100 96 96 98 99 95 98 71 77 64 40 45 51 60 48 51 52 92 95 74 86 82 82 63 49 59 69 62 65 71 61 49 48 46 49 58 57
70 73 75 81 79 94 91 80 88 98 99 100 100 99 98 98 100 100 94 86 95 93 100 87 80 74 75 49 39 44 39 43 46 61 96 100 87 69 86 64 64 59 52 57 77 75 70 68 69 64 63 63 61 62
60 67 70 78 83 78 68 50 58 74 85 94 90 76 85 72 78 86 90 95 92 100 100 93 78 71 77 54 52 47 42 42 50 68 91 85 84 83 86 77 69 51 57 68 73 60 66 76 73 66 63 65 65 60
64 58 52 67 83 79 62 47 50 65 77 77 77 76 76 80 93 99 92 96 88 99 99 100 79 79 86 73 58 56 54 48 49 52 92 77 73 63 84 87 64 62 53 38 72 61 57 76 75 71 63 69 72 71
62 60 64 66 67 70 58 50 54 72 78 81 81 90 88 89 94 87 86 77 75 81 96 99 98 88 92 79 87 85 70 80 80 85 87 76 77 70 97 88 70 67 65 60 59 65 86 79 88 81 76 81 79 79
75 72 74 74 66 69 70 66 74 79 91 95 91 90 87 98 91 84 89 100 98 97 96 100 99 100 84 89 95 89 87 83 91 93 88 90 90 86 92 77 72 69 73 75 73 67 71 85 85 84 80 78 77 79
90 74 69 72 74 73 76 70 62 74 87 93 92 90 96 100 97 86 89 100 99 91 99 100 100 100 90 93 89 87 87 100 90 100 99 84 98 99 87 77 80 70 64 91 83 79 86 85 88 87 81 79 80 85
100 100 100 99 98 94 90 79 78 82 98 100 100 97 97 95 82 57 94 98 100 100 96 100 100 100 93 99 100 99 90 100 98 97 87 100 99 91 87 80 76 76 75 82 90 96 91 91 90 91 85 85 84 81
100 100 99 97 97 99 98 94 95 100 100 100 98 93 96 92 96 98 100 97 94 99 93 98 99 99 94 99 100 98 100 99 97 95 95 100 99 93 91 88 85 82 80 78 74 83 85 85 86 88 89 85 72 50
93 95 100 99 98 98 100 99 100 99 99 88 92 96 97 99 93 94 99 95 97 100 97 100 100 98 95 84 98 95 96 94 98 92 96 98 99 98 93 92 92 88 83 82 81 84 87 85 84 82 77 66 44 41
100 99 99 100 99 96 95 98 100 85 88 86 88 92 84 93 96 93 99 98 98 100 100 100 99 96 87 82 98 95 95 96 84 92 91 99 100 98 96 97 95 92 87 86 87 86 83 81 77 72 50 50 49 49
100 99 92 93 99 100 100 100 93 81 64 71 87 98 98 99 99 100 100 99 99 100 100 95 100 100 97 100 100 93 100 95 99 100 95 99 100 96 94 93 90 88 84 83 85 82 79 78 58 60 57 58 49 38
95 95 98 99 98 96 94 80 62 54 64 92 95 98 98 100 100 100 99 100 100 100 99 99 99 96 100 99 98 98 98 91 97 97 99 100 100 96 96 93 88 86 87 83 80 81 63 51 58 75 71 54 42 42
85 80 88 86 83 86 85 79 59 60 77 90 98 99 99 98 98 98 99 99 100 98 96 96 100 96 99 98 98 98 86 98 99 99 100 100 100 96 95 93 90 95 94 72 58 66 84 62 63 59 53 50 51 51
79 86 83 81 71 68 63 56 67 81 95 97 99 99 100 99 100 100 100 100 100 100 100 99 96 99 99 98 98 99 98 99 100 100 100 99 99 97 98 98 97 98 97 95 96 86 76 73 65 59 56 61 62 61
26 29 74 73 67 66 71 84 82 83 99 99 99 99 100 100 99 99 100 100 99 100 99 99 98 96 96 96 97 98 99 99 99 99 99 100 99 99 99 98 98 98 98 92 97 100 96 78 73 70 66 68 69 72
25 15 33 50 35 54 74 91 87 98 99 99 98 99 99 99 98 99 98 99 99 96 93 96 95 96 96 96 96 97 98 99 99 99 99 100 98 98 98 98 98 98 98 99 100 94 82 80 77 77 73 70 62 50
13 8 8 16 30 56 76 78 84 95 99 99 98 99 97 94 85 72 70 68 68 78 91 95 96 97 96 97 97 97 98 99 99 99 99 100 100 99 100 99 99 98 98 97 97 91 88 86 92 86 61 41 37 31
7 13 21 21 51 71 85 85 89 92 97 92 82 76 84 77 72 76 74 69 75 97 95 96 96 96 96 96 96 97 97 98 98 99 98 98 99 99 98 98 98 97 97 96 96 96 96 96 96 95 91 50 29 35
7 6 8 24 59 68 70 78 79 80 76 79 73 74 81 94 88 70 64 83 95 97 97 97 96 96 95 96 97 96 98 100 100 99 98 98 98 97 97 96 96 96 96 96 96 96 96 96 96 92 56 38 43 43
12 16 30 37 40 54 68 68 68 70 88 74 65 83 89 89 94 67 89 95 95 97 98 96 92 96 97 98 94 94 96 96 95 96 96 96 96 96 96 96 96 96 95 95 95 95 95 95 84 48 40 40 39 40
24 50 69 79 74 96 69 68 72 66 63 79 91 85 89 98 72 78 97 96 97 97 94 98 97 87 86 86 92 96 99 98 96 95 96 96 95 95 96 95 95 95 96 96 94 82 58 45 37 36 34 32 41 56
51 87 70 85 75 72 86 86 86 88 92 94 93 91 85 80 94 98 97 97 96 96 100 95 91 92 93 97 98 97 97 98 95 90 96 96 95 96 95 96 95 90 65 47 39 34 33 33 33 33 40 53 68 78
88 88 84 76 76 78 81 90 88 93 95 91 90 76 85 89 94 98 95 96 96 96 96 96 97 91 94 96 95 94 98 97 99 92 95 96 93 85 77 66 58 52 37 30 30 32 33 34 39 50 60 73 84 94
82 96 87 79 82 73 82 70 75 90 100 100 100 97 94 98 99 97 97 97 96 96 96 98 97 96 97 98 97 93 75 68 69 75 78 73 69 69 66 48 41 44 43 48 52 54 60 65 69 74 76 82 90 97
87 78 89 74 72 68 76 88 99 98 100 93 92 99 97 98 97 98 99 98 98 96 94 95 95 96 91 81 79 96 98 81 76 81 76 71 66 70 60 47 50 58 66 71 74 79 86 89 94 96 99 99 95 100
80 79 79 90 78 82 98 98 99 100 88 87 96 98 98 100 100 99 97 98 99 98 97 98 100 98 95 78 57 53 54 61 68 66 56 46 45 49 52 59 66 71 81 85 92 97 100 100 100 100 100 100 100 100
82 80 78 80 98 100 99 91 89 89 93 91 87 100 98 99 100 99 99 97 94 94 96 98 99 100 96 88 67 70 61 46 42 47 54 58 63 65 67 70 72 77 84 88 92 96 99 100 100 100 100 99 100 100
82 76 81 93 99 97 92 88 95 84 89 98 93 82 94 97 100 100 97 100 100 100 96 95 82 78 80 76 58 50 54 53 53 58 62 66 69 69 70 73 78 85 89 92 97 100 100 100 100 100 100 100 100 100
81 86 87 99 98 98 92 96 96 94 97 97 100 91 100 98 100 98 100 98 98 98 95 91 91 94 92 76 64 63 63 70 75 73 70 66 66 70 74 79 82 80 80 84 90 96 99 100 100 100 100 100 100 100
84 75 75 84 95 96 88 80 97 95 95 97 98 95 97 95 99 100 98 98 97 96 96 97 95 83 80 88 90 81 71 68 65 62 59 62 64 64 67 72 74 76 78 82 90 95 98 99 97 96 98 100 100 100

GFSWCAN_850_rhum_042.txt.gz
RH
92 95 87 89 90 88 99 100 100 99 99 99 100 96 80 77 89 94 77 99 100 99 95 94 71 62 61 62 75 63 63 66 90 84 90 87 90 80 76 64 74 75 85 87 86 81 71 38 37 41 42 30 32 38
100 100 100 100 100 100 100 99 99 100 99 97 100 99 87 85 92 89 90 91 97 100 98 95 92 80 72 62 58 59 59 72 62 86 94 92 87 94 74 78 60 63 67 75 71 71 51 41 34 27 27 32 34 32
98 99 99 100 99 99 100 100 100 100 100 100 98 84 75 76 73 66 85 74 98 100 95 89 74 75 73 73 60 57 58 65 65 43 83 92 84 86 84 79 70 59 58 65 60 58 63 54 44 36 29 31 32 32
81 80 80 82 86 90 93 93 95 96 98 96 93 91 79 66 65 82 85 95 94 99 99 73 69 80 82 73 70 61 51 49 66 66 89 97 90 77 87 68 67 65 64 75 71 78 74 66 55 43 38 38 38 42
84 85 83 81 76 73 71 71 75 78 78 78 78 75 74 72 79 86 84 78 96 100 97 92 75 67 75 93 76 73 60 55 66 88 98 86 86 84 91 82 75 68 68 72 63 53 49 48 46 48 46 48 48 47
96 98 97 91 93 89 86 83 76 68 69 71 78 80 96 91 97 95 100 89 97 100 100 99 86 70 75 85 78 66 68 67 69 59 88 81 78 73 93 86 56 48 48 49 45 46 46 45 52 57 55 61 63 60
98 96 89 92 98 100 99 99 99 90 86 80 85 84 84 89 91 85 86 88 94 100 98 99 98 79 86 100 100 90 88 76 69 76 89 86 87 66 94 79 61 66 65 56 53 59 76 70 68 66 61 66 68 68
89 75 69 62 78 99 99 99 99 99 98 96 90 79 75 87 74 94 88 96 87 98 97 100 98 96 94 97 100 100 96 83 87 98 92 95 95 91 86 77 88 81 71 74 76 64 57 65 72 74 70 70 70 72
85 78 55 56 86 95 98 100 99 96 100 99 95 89 97 99 99 80 68 84 86 78 99 100 100 97 93 99 100 98 96 100 99 100 100 93 100 88 82 89 92 88 69 78 75 72 76 72 80 81 78 80 75 85
76 74 53 53 76 84 87 99 100 98 96 95 99 94 91 88 74 74 100 100 99 92 100 100 96 100 96 99 100 99 99 100 100 99 96 100 98 91 88 83 85 85 77 59 78 100 100 100 90 89 86 86 84 90
54 60 48 48 69 81 83 90 95 98 96 80 80 84 69 75 94 98 100 100 100 99 100 97 98 99 98 96 100 100 100 100 100 99 94 100 99 97 99 95 82 80 80 77 73 75 81 76 87 90 90 92 99 98
46 45 44 42 63 85 98 96 99 100 88 89 99 83 88 78 87 97 99 99 98 99 100 100 100 98 100 97 97 99 100 100 100 97 100 100 99 100 97 100 96 93 87 83 81 83 87 86 85 87 96 98 97 98
54 50 58 76 74 82 95 99 92 99 96 100 100 98 89 100 99 97 98 100 99 100 100 100 100 95 98 92 100 100 100 99 96 99 99 100 100 100 99 99 99 95 90 90 93 92 90 89 96 99 98 98 97 78
61 62 61 69 69 77 80 93 98 97 100 100 100 98 97 97 98 99 100 100 100 100 100 100 100 99 99 99 99 98 100 96 97 96 99 99 100 100 100 100 97 98 95 93 94 98 100 100 99 98 98 78 52 47
79 69 70 90 97 94 93 96 100 100 100 99 93 99 97 100 99 99 100 99 100 100 100 100 98 96 99 98 99 99 96 98 98 98 99 100 100 100 100 100 100 100 100 100 100 99 99 99 98 97 74 51 43 57
96 100 100 98 95 98 97 100 100 99 97 95 97 98 99 98 97 98 100 100 100 100 95 86 97 99 99 99 94 97 92 96 98 98 99 100 100 100 99 100 100 100 99 99 99 99 98 98 77 55 53 67 68 48
71 96 99 98 99 100 100 99 91 84 91 92 98 98 98 98 98 97 100 100 100 98 99 97 94 97 92 96 94 95 97 97 97 99 99 99 99 99 99 99 99 99 99 99 98 98 93 75 82 94 95 87 50 46
98 100 100 100 99 98 95 96 82 82 98 98 96 98 97 98 96 97 99 99 99 99 90 98 86 94 96 95 95 95 95 96 99 98 98 99 99 99 99 99 99 99 98 98 97 97 98 97 97 96 83 56 59 62
98 100 100 99 98 98 79 76 76 95 98 96 96 94 93 94 93 95 96 98 89 82 85 93 91 94 95 95 95 96 96 96 98 98 98 99 99 99 98 98 98 98 98 98 97 97 96 96 95 87 68 73 74 80
70 76 94 100 100 88 76 77 80 89 99 89 73 75 77 82 79 77 72 68 71 79 87 92 95 96 96 96 96 96 96 97 97 97 96 97 98 98 98 98 97 97 97 97 96 96 96 96 96 95 94 94 95 96
43 49 52 49 58 76 88 91 98 97 92 91 90 71 66 66 75 77 74 66 71 91 92 96 96 97 96 96 96 96 96 96 96 95 96 96 96 96 96 96 96 96 96 96 96 96 96 96 96 96 96 96 96 96
24 24 28 41 52 56 61 71 78 76 68 74 75 86 98 94 88 76 68 85 94 98 96 96 97 96 95 95 96 95 96 96 96 96 96 96 95 95 95 96 96 95 95 96 96 96 95 96 95 95 95 95 95 95
14 19 34 42 55 61 72 62 63 66 88 83 70 90 97 96 84 62 89 93 97 98 97 98 97 97 96 97 95 94 95 92 93 96 96 96 96 97 96 95 96 95 95 95 96 96 95 95 95 95 94 90 75 55
23 44 59 64 62 83 68 76 72 79 76 89 95 99 96 93 71 80 98 96 98 96 94 96 97 94 90 86 91 96 97 94 93 95 97 91 89 95 94 94 93 92 88 90 80 70 58 48 38 36 35 34 34 38
50 86 62 84 68 74 89 94 96 91 100 100 94 96 98 72 97 100 96 97 97 97 96 96 93 92 94 98 98 99 99 94 88 86 93 86 76 65 54 45 41 38 38 38 35 38 40 42 44 47 50 56 62 67
96 90 90 90 93 89 98 99 99 100 98 98 97 96 71 91 94 100 94 97 96 98 97 98 97 93 93 91 84 80 79 75 68 62 71 66 56 46 41 39 42 45 46 48 49 50 52 55 58 63 70 78 86 90
97 95 77 88 80 80 93 90 89 94 96 94 98 98 92 100 100 97 98 97 97 98 97 93 84 84 95 99 99 91 89 79 66 68 66 55 45 44 46 46 49 54 58 60 60 64 69 76 81 82 84 88 91 92
86 72 91 89 85 88 100 100 98 98 98 98 81 100 100 100 99 100 100 99 98 98 96 93 88 72 61 80 89 84 55 55 60 48 49 50 50 51 50 52 56 58 58 58 63 70 80 89 93 96 99 99 98 98
93 89 77 100 90 96 98 99 95 100 100 89 97 100 100 100 100 100 100 99 99 100 98 98 96 99 97 85 78 68 54 50 50 48 45 45 42 40 41 42 45 49 50 54 60 65 71 77 85 91 98 99 100 100
88 86 89 90 93 93 100 97 91 81 81 84 93 100 98 100 100 100 99 100 99 95 93 94 93 98 89 73 68 61 56 54 48 44 42 39 43 46 48 52 55 58 60 62 63 65 68 70 73 77 82 88 90 93
87 83 87 94 99 98 99 89 82 78 78 82 80 87 97 98 100 100 100 97 97 98 100 100 97 97 96 92 76 63 58 50 40 40 43 47 52 56 59 62 66 70 74 76 78 78 79 78 79 80 82 83 84 88
89 95 90 100 97 96 84 97 93 96 99 95 100 95 97 97 99 98 97 96 100 100 97 94 92 90 84 76 58 50 42 42 46 51 56 59 63 66 69 69 70 74 78 81 81 82 83 82 82 84 86 89 90 92
81 85 88 94 97 98 98 95 94 96 98 99 100 99 99 93 94 97 97 97 97 91 79 70 69 66 55 45 44 44 49 56 59 62 64 67 68 70 70 72 74 76 78 79 79 80 82 83 84 86 87 88 90 92

GFSWCAN_850_rhum_045.txt.gz
RH
97 97 87 89 88 83 90 92 94 92 100 100 100 100 98 91 87 99 98 93 94 99 98 82 74 62 60 56 68 68 65 67 93 84 89 85 88 74 71 64 74 68 76 80 75 77 60 42 36 42 41 28 27 40
100 98 95 86 83 84 84 91 90 100 100 100 100 99 88 89 96 100 100 99 99 95 100 99 95 89 69 56 52 58 55 62 65 84 90 89 88 94 72 66 61 73 63 65 57 60 50 36 31 25 24 24 29 36
100 100 100 94 97 94 88 96 100 100 100 100 100 100 100 100 100 99 96 92 93 98 85 77 87 91 74 64 54 58 62 60 53 46 84 87 83 82 90 80 67 64 60 66 59 53 52 41 33 32 28 28 28 36
99 99 100 100 100 100 100 100 99 99 100 100 100 99 100 100 99 98 96 88 73 94 98 72 67 75 72 71 64 53 53 55 67 60 81 95 89 69 82 64 70 65 65 69 62 57 69 55 45 36 36 33 35 37
79 87 94 100 99 100 100 100 100 100 100 99 99 98 99 100 100 99 77 79 74 74 97 92 61 65 67 80 72 64 54 63 74 88 99 90 81 81 90 81 82 65 62 69 64 43 44 34 30 37 38 34 36 34
86 79 76 86 97 100 100 99 99 100 99 99 99 99 99 96 84 66 87 87 91 85 98 98 78 62 80 88 83 76 71 68 72 72 90 74 73 81 90 83 54 47 47 50 46 33 36 35 41 45 43 41 42 44
98 99 93 86 80 80 92 96 97 98 93 93 86 79 72 64 60 62 77 73 72 80 100 99 94 80 74 96 99 100 92 96 76 72 93 81 87 77 93 79 52 53 52 54 49 47 52 48 50 57 54 59 62 59
79 94 98 94 91 78 71 71 75 76 78 73 70 65 66 67 65 97 99 64 78 91 99 100 96 97 95 100 100 100 99 98 94 79 95 95 96 91 89 68 62 62 58 60 64 54 56 46 57 65 67 68 72 71
62 88 99 96 94 95 99 79 72 66 69 70 80 89 98 100 98 96 100 88 84 98 98 100 100 98 99 100 96 96 99 100 97 99 97 90 100 93 77 77 85 83 72 77 67 73 69 62 63 74 77 81 74 87
59 85 100 98 93 100 99 96 77 74 80 86 92 98 97 90 76 82 96 100 100 98 100 100 97 97 97 100 100 99 100 100 100 98 100 100 100 91 88 80 80 82 79 78 79 94 87 80 93 93 86 86 80 84
59 82 94 99 99 100 100 98 82 91 93 99 98 99 78 78 78 94 99 99 99 100 98 93 90 99 98 95 100 99 100 100 100 99 97 100 99 94 100 93 89 82 80 79 78 80 84 78 88 91 89 86 85 87
60 87 100 100 99 100 98 100 98 95 90 98 91 87 95 84 89 95 99 99 100 98 100 100 99 98 99 91 94 99 99 99 100 99 100 100 100 100 100 100 97 91 96 99 94 85 90 90 87 87 89 93 95 98
71 72 91 98 100 100 96 99 99 99 99 90 89 97 90 98 98 98 97 99 99 99 99 100 100 98 98 91 100 99 100 100 100 99 97 99 99 100 100 100 100 100 98 93 92 89 94 98 98 92 98 99 99 98
68 68 70 88 90 96 100 100 99 99 90 98 97 98 98 96 97 98 99 100 99 100 100 100 100 100 100 99 100 99 100 99 96 96 97 98 100 100 100 100 100 100 100 98 100 100 100 99 99 99 99 98 98 97
79 72 65 72 70 70 86 96 99 98 97 99 84 97 97 99 98 99 99 100 100 100 100 100 100 98 100 99 100 97 93 95 94 96 98 99 99 99 100 100 100 100 100 100 99 99 98 98 98 98 98 94 87 76
84 88 88 85 87 90 84 90 98 98 98 86 88 95 96 96 96 96 97 98 99 100 100 96 99 97 98 95 87 94 91 93 94 96 97 99 99 98 98 99 99 99 99 98 98 98 98 98 97 87 67 59 54 83
97 100 94 93 96 100 98 95 96 95 97 94 96 97 97 96 96 97 97 97 100 97 98 88 90 95 88 90 90 90 94 93 95 97 98 98 98 98 99 99 99 99 98 99 98 98 98 97 89 76 62 85 96 92
100 99 100 97 91 98 91 95 83 84 96 97 95 96 96 97 97 96 97 98 97 97 87 94 82 87 93 91 91 92 95 96 97 97 98 98 98 98 98 98 98 98 98 97 97 97 96 96 96 96 96 96 95 89
100 99 100 100 98 91 85 80 70 92 96 95 90 85 85 87 88 90 83 71 69 73 74 75 87 88 92 93 93 96 97 96 97 97 96 97 97 97 97 97 97 97 97 97 97 96 96 96 96 96 95 95 92 81
100 100 100 100 93 85 79 79 73 76 88 75 75 74 76 81 79 76 67 64 60 76 86 90 91 95 96 97 96 96 96 96 96 96 96 96 96 96 96 96 96 96 96 96 96 96 96 95 96 96 96 96 96 95
100 100 98 69 66 79 92 92 97 96 99 97 82 63 62 61 73 77 76 67 70 86 88 98 98 96 96 96 96 96 96 96 95 95 96 96 96 95 96 96 96 96 95 95 95 96 95 95 96 96 95 95 96 96
75 72 78 56 54 58 61 69 76 76 66 75 83 92 98 100 90 79 68 83 92 98 98 99 100 98 96 94 95 96 96 96 96 96 96 96 95 94 94 96 95 94 94 95 95 95 95 95 96 96 95 95 95 95
34 38 42 47 51 55 66 63 64 71 89 84 80 89 94 98 81 62 91 92 99 98 98 98 97 97 96 97 97 95 95 92 94 96 96 96 96 96 96 95 95 94 93 96 95 94 87 82 70 55 46 37 36 36
30 45 52 61 61 86 70 78 74 80 78 90 95 98 95 94 69 80 93 97 100 97 96 97 97 96 94 91 95 98 98 93 92 90 85 78 70 61 52 46 42 40 41 39 38 38 38 38 40 41 42 44 47 50
52 85 58 84 70 72 95 100 97 90 100 100 94 96 100 70 95 98 96 98 97 97 97 96 89 86 89 90 91 92 91 77 65 58 55 49 43 40 40 41 42 42 44 43 40 41 41 44 45 48 51 55 60 63
96 94 95 100 98 94 98 100 100 100 98 97 98 96 70 89 93 99 91 98 97 98 98 97 97 93 92 89 86 82 83 77 66 54 51 46 44 43 44 44 46 44 40 43 47 50 53 56 58 62 69 77 83 82
100 97 86 94 86 88 99 93 91 92 93 92 97 96 89 100 100 96 99 97 96 95 87 74 78 90 94 89 83 83 76 62 50 50 49 48 45 43 41 41 41 42 44 48 50 54 57 61 67 72 74 80 92 95
88 75 91 95 88 89 100 99 90 94 92 98 80 100 100 98 97 100 100 99 97 97 95 89 78 71 83 81 68 60 54 53 53 52 50 48 43 40 39 41 46 50 54 53 55 59 60 62 65 69 72 74 78 88
93 90 71 100 94 96 99 100 93 100 100 88 97 100 100 100 100 100 100 100 100 100 99 98 95 94 85 76 67 61 58 55 51 45 36 33 33 39 43 47 50 54 58 62 66 68 70 70 72 74 77 78 79 80
87 87 87 90 95 100 97 96 87 86 85 88 95 99 99 100 100 100 100 100 100 98 93 91 88 89 77 74 77 67 62 52 38 34 35 41 48 52 56 60 62 64 64 66 69 72 74 76 77 77 78 77 78 81
92 76 90 96 98 97 84 79 77 75 75 84 83 89 99 100 100 100 100 98 95 92 93 96 95 95 95 86 74 62 48 40 42 47 53 56 60 63 65 65 65 66 68 70 71 72 73 74 74 74 76 78 81 82
91 89 88 100 97 93 99 100 94 93 95 90 98 93 96 96 96 98 94 92 92 94 97 96 94 92 88 72 50 43 45 51 55 57 58 60 63 63 65 67 69 71 72 72 72 71 71 72 72 74 76 79 81 83
86 88 90 93 97 99 97 96 95 97 100 100 100 100 99 90 88 93 92 92 94 87 64 50 52 50 39 36 42 48 54 57 56 55 56 58 58 61 65 70 73 74 72 70 69 68 68 69 71 73 75 76 78 80